Hill City, KS

7:20 AM CST on November 23, 2017 (GMT -0600)
Hill City Municipal

Weather History for KHLC - March, 2013

Change the Weather History Date:

Wednesday, March 20, 2013

  Actual Average Record
Temperature  
Mean Temperature 32 °F 43 °F  
Max Temperature 49 °F 57 °F 88 °F (1916)
Min Temperature 14 °F 29 °F 2 °F (1965)
Degree Days  
Heating Degree Days 34    
Moisture  
Dew Point 16 °F    
Average Humidity 54    
Maximum Humidity 88    
Minimum Humidity 26    
Precipitation  
Precipitation 0.00 in 0.05 in 1.27 in (2005)
Month to date precipitation 0.08 0.94  
Year to date precipitation 1.27 1.91  
Sea Level Pressure  
Sea Level Pressure 30.27 in    
Wind  
Wind Speed 6 mph (SE)    
Max Wind Speed 14 mph    
Max Gust Speed 21 mph    
Visibility 10 miles    
Events      
T = Trace of Precipitation, MM = Missing Value Source: NWS Daily Summary

Daily Weather History Graph

Daily Weather History Graph

Search for Another Location

Airport or City:

Trip Planner

Search our weather history database for the weather conditions in past years. The results will help you decide how hot, cold, wet, or windy it might be!

Date:

Astronomy

Mar. 20, 2013 Rise Set
Actual Time 7:42 AM CDT 7:51 PM CDT
Civil Twilight 7:15 AM CDT 8:18 PM CDT
Nautical Twilight 6:44 AM CDT 8:49 PM CDT
Astronomical Twilight 6:12 AM CDT 9:21 PM CDT
Moon 1:30 PM CDT (3/20) 3:21 AM CDT (3/20)
Length of Visible Light 13h 02m
Length of Day
12h 09m
First Quarter, 59% of the Moon is Illuminated
Mar 20
First Quarter
Mar 27
Full
Apr 2
Last Quarter
Apr 10
New
Apr 18
First Quarter

Hourly Weather History & Observations

Time (CDT) Temp. Windchill Dew Point Humidity Pressure Visibility Wind Dir Wind Speed Gust Speed Precip Events Conditions
12:53 AM 26.1 °F 21.9 °F 21.9 °F 84% 30.38 in 10.0 mi SW 3.5 mph - N/A   Clear
1:53 AM 27.0 °F - 21.0 °F 78% 30.39 in 10.0 mi Calm Calm - N/A   Clear
2:53 AM 24.1 °F 13.7 °F 19.0 °F 81% 30.43 in 10.0 mi North 10.4 mph - N/A   Clear
3:53 AM 21.9 °F 12.5 °F 17.1 °F 82% 30.44 in 10.0 mi North 8.1 mph - N/A   Clear
4:53 AM 21.0 °F 10.6 °F 16.0 °F 81% 30.43 in 10.0 mi North 9.2 mph - N/A   Clear
5:53 AM 21.0 °F 16.2 °F 16.0 °F 81% 30.43 in 10.0 mi NW 3.5 mph - N/A   Clear
6:53 AM 16.0 °F 7.4 °F 12.9 °F 88% 30.45 in 10.0 mi NNW 5.8 mph - N/A   Clear
7:53 AM 14.0 °F 8.2 °F 10.9 °F 88% 30.46 in 9.0 mi NW 3.5 mph - N/A   Clear
8:53 AM 21.9 °F - 16.0 °F 78% 30.45 in 10.0 mi Calm Calm - N/A   Clear
9:53 AM 30.0 °F - 18.0 °F 61% 30.44 in 10.0 mi Calm Calm - N/A   Clear
10:53 AM 33.1 °F - 14.0 °F 46% 30.44 in 10.0 mi Calm Calm - N/A   Clear
11:53 AM 37.0 °F 33.3 °F 12.0 °F 36% 30.40 in 10.0 mi Variable 4.6 mph - N/A   Clear
12:53 PM 39.0 °F 34.0 °F 10.0 °F 30% 30.36 in 10.0 mi Variable 6.9 mph - N/A   Clear
1:53 PM 43.0 °F 37.7 °F 12.0 °F 28% 30.29 in 10.0 mi SSE 9.2 mph 16.1 mph N/A   Clear
2:53 PM 46.0 °F 41.4 °F 14.0 °F 28% 30.23 in 10.0 mi SSE 9.2 mph - N/A   Clear
3:53 PM 48.9 °F - 15.1 °F 26% 30.18 in 10.0 mi South 12.7 mph 20.7 mph N/A   Clear
4:53 PM 48.0 °F - 15.1 °F 27% 30.14 in 10.0 mi South 11.5 mph - N/A   Clear
5:53 PM 46.9 °F - 17.1 °F 30% 30.10 in 10.0 mi SSE 13.8 mph 20.7 mph N/A   Clear
6:53 PM 46.0 °F 41.0 °F 18.0 °F 33% 30.08 in 10.0 mi SE 10.4 mph - N/A   Clear
7:53 PM 44.1 °F 38.1 °F 18.0 °F 35% 30.05 in 10.0 mi SE 11.5 mph - N/A   Clear
8:53 PM 39.9 °F 32.9 °F 19.0 °F 43% 30.02 in 10.0 mi SE 11.5 mph - N/A   Clear
9:53 PM 39.0 °F 31.8 °F 19.0 °F 45% 29.99 in 10.0 mi ESE 11.5 mph - N/A   Clear
10:53 PM 39.0 °F 31.8 °F 19.0 °F 45% 29.97 in 10.0 mi SE 11.5 mph 20.7 mph N/A   Partly Cloudy
11:53 PM 37.9 °F 29.6 °F 19.9 °F 48% 29.94 in 10.0 mi SE 13.8 mph - N/A   Partly Cloudy